Weather History for Louisville Bowman, KY

Change the Weather History Date:

Monday, January 21, 2013

  Actual Average Record
Temperature  
Mean Temperature 23 °F 34 °F  
Max Temperature 30 °F 42 °F 69 °F (1986)
Min Temperature 16 °F 26 °F -11 °F (1985)
Degree Days  
Heating Degree Days 42 31  
Month to date heating degree days 558 645  
Since 1 July heating degree days 2153 2309  
Cooling Degree Days 0 0  
Month to date cooling degree days 0 0  
Year to date cooling degree days 0 0  
Moisture  
Dew Point 7 °F    
Average Humidity 46    
Maximum Humidity 63    
Minimum Humidity 29    
Precipitation  
Precipitation 0.00 in 0.09 in 2.15 in (1959)
Month to date precipitation 3.62 2.42  
Year to date precipitation 3.62 2.42  
Sea Level Pressure  
Sea Level Pressure 30.24 in    
Wind  
Wind Speed 13 mph (WNW)    
Max Wind Speed 24 mph    
Max Gust Speed 31 mph    
Visibility 10 miles    
Events      
T = Trace of Precipitation, MM = Missing Value Source: NWS Daily Summary

Daily Weather History Graph

Daily Weather History Graph

Search for Another Location

Airport:

Trip Planner

Search our weather history database for the weather conditions in past years. The results will help you decide how hot, cold, wet, or windy it might be!

Date:

Astronomy

Jan. 21, 2013 Rise Set
Actual Time 7:55 AM EST 5:53 PM EST
Civil Twilight 7:26 AM EST 6:21 PM EST
Nautical Twilight 6:54 AM EST 6:54 PM EST
Astronomical Twilight 6:23 AM EST 7:25 PM EST
Moon 1:33 PM EST (1/21) 3:22 AM EST (1/21)
Length of Visible Light 10h 55m
Length of Day
9h 58m
Waxing Gibbous, 75% of the Moon is Illuminated
Jan 21
Waxing Gibbous
Jan 26
Full
Feb 3
Last Quarter
Feb 10
New
Feb 17
First Quarter

Hourly Weather History & Observations

Time (EST) Temp. Windchill Dew Point Humidity Pressure Visibility Wind Dir Wind Speed Gust Speed Precip Events Conditions
12:53 AM 28.0 °F 24.2 °F 12.0 °F 51% 30.21 in 10.0 mi NW 3.5 mph - N/A   Mostly Cloudy
1:53 AM 28.0 °F - 10.9 °F 49% 30.19 in 10.0 mi Calm Calm - N/A   Clear
2:53 AM 27.0 °F 21.6 °F 10.0 °F 49% 30.20 in 10.0 mi NW 4.6 mph - N/A   Clear
3:53 AM 27.0 °F 20.5 °F 12.0 °F 53% 30.20 in 10.0 mi WNW 5.8 mph - N/A   Mostly Cloudy
4:53 AM 27.0 °F 21.6 °F 14.0 °F 58% 30.19 in 10.0 mi WNW 4.6 mph - N/A   Overcast
5:53 AM 27.0 °F 18.7 °F 12.9 °F 56% 30.19 in 10.0 mi West 8.1 mph - N/A   Overcast
6:53 AM 26.1 °F 15.6 °F 14.0 °F 60% 30.20 in 10.0 mi WNW 11.5 mph - N/A   Mostly Cloudy
7:53 AM 26.1 °F 16.8 °F 16.0 °F 66% 30.22 in 10.0 mi WNW 9.2 mph - N/A   Mostly Cloudy
8:35 AM 24.8 °F 16.1 °F 15.8 °F 69% 30.20 in 10.0 mi West 8.1 mph - N/A   Scattered Clouds
8:53 AM 26.1 °F 15.0 °F 15.1 °F 63% 30.23 in 10.0 mi West 12.7 mph 18.4 mph N/A   Partly Cloudy
9:53 AM 26.1 °F 14.5 °F 12.9 °F 58% 30.24 in 10.0 mi WNW 13.8 mph 23.0 mph N/A   Partly Cloudy
10:08 AM 26.6 °F 15.2 °F 14.0 °F 59% 30.21 in 10.0 mi West 13.8 mph - N/A   Mostly Cloudy
10:53 AM 28.0 °F 16.1 °F 12.9 °F 53% 30.22 in 10.0 mi WSW 16.1 mph 20.7 mph N/A   Partly Cloudy
11:53 AM 28.9 °F 17.3 °F 10.9 °F 47% 30.22 in 10.0 mi WSW 16.1 mph - N/A   Mostly Cloudy
12:53 PM 28.9 °F 15.4 °F 5.0 °F 36% 30.20 in 10.0 mi WSW 21.9 mph 28.8 mph N/A   Clear
1:53 PM 28.9 °F 15.4 °F -0.0 °F 29% 30.19 in 10.0 mi WNW 21.9 mph 31.1 mph N/A   Clear
2:53 PM 28.9 °F 15.4 °F -0.0 °F 29% 30.21 in 10.0 mi WNW 21.9 mph 28.8 mph N/A   Clear
3:53 PM 28.0 °F 15.7 °F -0.0 °F 30% 30.22 in 10.0 mi West 17.3 mph 26.5 mph N/A   Clear
4:53 PM 26.1 °F 13.6 °F -0.0 °F 32% 30.25 in 10.0 mi West 16.1 mph 24.2 mph N/A   Clear
5:53 PM 23.0 °F 9.2 °F 1.0 °F 39% 30.26 in 10.0 mi West 17.3 mph - N/A   Clear
6:53 PM 21.0 °F 7.1 °F -0.9 °F 38% 30.27 in 10.0 mi WNW 16.1 mph - N/A   Clear
7:53 PM 21.0 °F 7.6 °F -0.0 °F 40% 30.30 in 10.0 mi WNW 15.0 mph - N/A   Partly Cloudy
8:53 PM 19.9 °F 7.3 °F 1.0 °F 44% 30.30 in 10.0 mi WNW 12.7 mph - N/A   Mostly Cloudy
9:53 PM 18.0 °F 3.1 °F 1.9 °F 50% 30.33 in 10.0 mi WNW 16.1 mph - N/A   Scattered Clouds
10:53 PM 17.1 °F 5.0 °F 1.0 °F 50% 30.34 in 10.0 mi NW 10.4 mph - N/A   Clear
11:53 PM 16.0 °F 2.3 °F -0.9 °F 47% 30.33 in 10.0 mi WNW 12.7 mph - N/A   Clear